Вернуться в каталог

NIMBUS 2 DEB

АктивенLEO
NORAD 25526·DEBRIS·🇺🇸 United States

Запущен May 15, 1966 с Vandenberg Space Force Base

Loading…

Ближайшие Пролёты (ближайшие 24 часа)

TLE

СвежийSource: Space-Track

Эпоха: Sep 13, 2026, 07:59 UTC

1 25526U 66040D   26256.33295146  .00002539  00000-0  24441-2 0  9996
2 25526 100.5802  21.6617 0039820 260.5899 125.2142 13.80891794677773

Отслеживайте NIMBUS 2 DEB в реальном времени с AllMySat

Download on the App Store